Regional Weather Roundup
Issued by NWS Sterling, VA

Home | Current Version | Previous Version | Graphics & Text | Print | Product List | Glossary On
Versions: 1 2 3 4 5 6 7 8 9 10 11 12 13 14 15 16 17 18 19 20 21 22 23 24 25 26 27
000
ASUS41 KLWX 272010
RWRLWX

REGIONAL WEATHER ROUNDUP
NATIONAL WEATHER SERVICE BALTIMORE MD/WASHINGTON DC
400 PM EDT TUE SEP 27 2016

Note: "FAIR" indicates few or no clouds below 12,000 feet
with no significant weather and/or obstructions to visibility.
 TC=TEMPERATURE CELSIUS

 * =Non NWS site. Station does not report precipitation (e.g. rain,
    snow, etc.), thunder, or fog.

DCZ001-MDZ009-015-VAZ040>042-051-053>054-272100-
WASHINGTON METRO

CITY           SKY/WX    TMP DP  RH WIND       PRES   REMARKS
WASHINGTON NAT MOSUNNY   76  57  51 S8        29.90F
DULLES         MOSUNNY   76  50  40 S8        29.89F
ANDREWS AFB    SUNNY     73  54  51 SE6       29.89F
FT BELVOIR     MOSUNNY   73  55  53 SE8       29.90F
QUANTICO       PTSUNNY   73  53  49 S3        29.91F
COLLEGE PARK*  SUNNY     73  52  46 S3        29.89F
LEESBURG*      SUNNY     79  52  38 S7        29.90F
MANASSAS*      SUNNY     75  55  50 S5        29.90F
GAITHERSBURG*  SUNNY     75  48  38 W3        29.94S

$$

MDZ006>007-011-014-272100-
BALTIMORE METRO

CITY           SKY/WX    TMP DP  RH WIND       PRES   REMARKS
BWI AIRPORT    MOSUNNY   74  54  49 S5        29.89F
MD SCIENCE CTR   N/A     74  55  51 MISG      29.90F
MARTIN STATE   MOSUNNY   73  57  56 SE6       29.92F
ANNAPOLIS      MOSUNNY   71  62  73 SE7       29.90F
FORT MEADE*    SUNNY     72  55  56 SW3       29.92F

$$

MDZ012-015-019>023-272100-
MARYLAND EASTERN SHORE

CITY           SKY/WX    TMP DP  RH WIND       PRES   REMARKS
OCEAN CITY     CLOUDY    71  66  84 E6        29.92F
SALISBURY      CLOUDY    69  66  90 E6        29.91F
BAY BRIDGE AP* CLOUDY    72  63  73 MISG      29.91S
CAMBRIDGE*     PTSUNNY   70  61  73 CALM      29.90F
EASTON*        MOSUNNY   73  63  68 S5        29.94F

$$

MDZ017>025-272100-
SOUTHERN MARYLAND

CITY           SKY/WX    TMP DP  RH WIND       PRES   REMARKS
PATUXENT RIVER CLOUDY    69  61  75 E5        29.91F
ST INIGOES     CLOUDY    70  65  84 VRB3      29.90F
LEONARDTOWN*   CLOUDY    68  61  77 CALM      29.93F

$$

MDZ003>005-272100-
NORTH CENTRAL MARYLAND

CITY           SKY/WX    TMP DP  RH WIND       PRES   REMARKS
FREDERICK*     SUNNY     79  48  34 SW3       29.92F
HAGERSTOWN APT SUNNY     76  38  25 S10       29.88F

$$

MDZ501>502-272100-
WESTERN MARYLAND

CITY           SKY/WX    TMP DP  RH WIND       PRES   REMARKS
OAKLAND*       SUNNY     63  37  39 SW3       29.95F
CUMBERLAND*    SUNNY     79  32  18 NW6       29.91F

$$

VAZ025>031-272100-
SHENANDOAH VALLEY

CITY           SKY/WX    TMP DP  RH WIND       PRES   REMARKS
WINCHESTER*    SUNNY     77  46  33 SW5       29.89F
FRONT ROYAL*   FAIR      75  54  46 S6        29.88F
LURAY*         FAIR      77  52  41 CALM      29.88F
NEW MARKET*    FAIR     N/A N/A N/A CALM      29.87F
STAUNTON*      SUNNY     78  44  30 SW10      29.91S
WAYNESBORO*    FAIR      77  47  35 W8        29.91S

$$

WVZ021-048>050-054>055-272100-
EASTERN WEST VIRGINIA PANHANDLE

CITY           SKY/WX    TMP DP  RH WIND       PRES   REMARKS
MARTINSBURG    SUNNY     77  41  27 S8        29.87F
PETERSBURG*    SUNNY     81  31  16 W8        29.87F

$$

VAZ036>039-050-272100-
CENTRAL FOOTHILLS

CITY           SKY/WX    TMP DP  RH WIND       PRES   REMARKS
CHARLOTTESVILL MOSUNNY   77  62  59 S9        29.88F
CULPEPER*      MOSUNNY   76  59  55 S5        29.91F
ORANGE*          N/A     73  61  64 E5        29.92F
GORDONSVILLE*  NOT AVBL
WARRENTON*     FAIR      77  51  39 SE3       29.90F

$$

VAZ055>057-272100-
NORTH AND CENTRAL PIEDMONT

CITY           SKY/WX    TMP DP  RH WIND       PRES   REMARKS
FREDERICKSBRG* SUNNY     73  56  55 E5        29.90F
STAFFORD*      SUNNY     74  56  53 SE5       29.95S

$$

NCZ024-NYZ072-PAZ021-071-VAZ022-071-272100-
OTHER REGIONAL OBSERVATIONS

CITY           SKY/WX    TMP DP  RH WIND       PRES   REMARKS
NEW YORK CITY  MOSUNNY   72  55  55 S3        29.90F
PHILADELPHIA   PTSUNNY   74  49  41 SW7       29.90F
PITTSBURGH     MOSUNNY   71  34  25 SW12G24   29.86F
ROANOKE        MOSUNNY   81  61  50 NW12      29.90F
RICHMOND       PTSUNNY   72  66  81 CALM      29.90F
RALEIGH        PTSUNNY   77  69  76 E3        29.90F

$$

ANZ530>537-272100-
MARINE OBSERVATIONS

STATION/POSITION TIME  TEMP    WIND        PRES
                       AIR SEA DIR/SP/G
                 (UTC) (F)     (DEG/KT/KT) (MB)
THOMAS PT LIGHT  2000   70 74  180/  2/  3 1014.0F
BALT KEY BRIDGE  1948   70     110/  7/  9 1012.4F
COVE POINT       1948   69     150/  3/  4 1013.4F
LEWISETTA        1948   69 74  110/  5/  6 1012.3F
SOLOMONS ISLAND  1948   69 76   40/  2/  3   N/A
PINEY POINT      1948           60/  3/  4   N/A

$$





USA.gov is the U.S. government's official web portal to all federal, state and local government web resources and services.